This is the latest recevied weather packets stored in our database for station/object NC4M. If no packets are shown the sender has not sent any weather packets the latest 10 day(s).
| Time | Temp. | Humidity | Pressure | Rain* | Wind** | Luminosity | Snow |
|---|---|---|---|---|---|---|---|
| 1777915694 | 28.89° C | 41% | 1006.3 hPa | 0 mm | - | 931 W/m² | - |
| 1777915390 | 28.89° C | 40% | 1006.5 hPa | 0 mm | - | 892 W/m² | - |
| 1777915086 | 28.33° C | 43% | 1006.4 hPa | 0 mm | - | 883 W/m² | - |
| 1777914784 | 27.78° C | 39% | 1006.5 hPa | 0 mm | - | 878 W/m² | - |
| 1777914481 | 27.78° C | 40% | 1006.7 hPa | 0 mm | - | 868 W/m² | - |
| 1777914178 | 27.22° C | 40% | 1006.6 hPa | 0 mm | - | 883 W/m² | - |
| 1777913874 | 27.78° C | 43% | 1006.4 hPa | 0 mm | - | 911 W/m² | - |
| 1777913570 | 27.78° C | 41% | 1006.4 hPa | 0 mm | - | 938 W/m² | - |
| 1777913266 | 27.22° C | 42% | 1006.7 hPa | 0 mm | - | 884 W/m² | - |
| 1777912964 | 27.22° C | 42% | 1006.6 hPa | 0 mm | - | 848 W/m² | - |
| 1777912659 | 27.22° C | 43% | 1006.6 hPa | 0 mm | - | 844 W/m² | - |
| 1777912356 | 26.67° C | 45% | 1006.7 hPa | 0 mm | - | 833 W/m² | - |
| 1777912052 | 26.11° C | 44% | 1006.7 hPa | 0 mm | - | 823 W/m² | - |
| 1777911748 | 26.67° C | 41% | 1007 hPa | 0 mm | - | 816 W/m² | - |
| 1777911445 | 26.11° C | 43% | 1006.7 hPa | 0 mm | - | 805 W/m² | - |
| 1777911142 | 25.56° C | 45% | 1006.8 hPa | 0 mm | - | 796 W/m² | - |
| 1777910840 | 25.56° C | 43% | 1006.7 hPa | 0 mm | - | 786 W/m² | - |
| 1777910536 | 25° C | 45% | 1006.8 hPa | 0 mm | - | 778 W/m² | - |
| 1777910233 | 25° C | 43% | 1006.6 hPa | 0 mm | - | 765 W/m² | - |
| 1777909930 | 25° C | 42% | 1006.8 hPa | 0 mm | - | 753 W/m² | - |
| 1777909627 | 24.44° C | 43% | 1006.6 hPa | 0 mm | - | 742 W/m² | - |
| 1777909324 | 23.89° C | 45% | 1006.9 hPa | 0 mm | - | 178 W/m² | - |
| 1777909022 | 23.89° C | 45% | 1007.1 hPa | 0 mm | - | 69 W/m² | - |
| 1777908719 | 23.33° C | 49% | 1007.1 hPa | 0 mm | - | 390 W/m² | - |
| 1777908416 | 23.33° C | 45% | 1007.1 hPa | 0 mm | - | 135 W/m² | - |
* Rain latest hour (hover to see other rain measurements)
** Current wind speed in m/s (hover to see current wind gust speed)